OBJECT G, 44316

Orbit data source: Space-Track

You're viewing an Uncataloged Satellite

Recently launched and/or uncataloged satellites may have evolving metadata. Metadata may include but not limited to: Owner, Maufacturer, Bus, Motor, and Mission.

OBJECT G, 44316 is a satellite owned by CETG (CN) in LEO that was launched on Wed, 05 Jun 2019 UTC via a CHANG ZHENG 11 launch vehicle from the Yellow Sea Launch Area, China (YSLA). Unknown objects in Earth's orbit typically refer to objects detected orbiting the Earth but have not yet been identified or cataloged. These objects could be anything from previously untracked satellites, spent rocket stages, debris from satellite collisions, or even natural meteoroids temporarily captured by Earth's gravity.

Loading next visibility...
Identifier
44316, 2019-032G
Orbit
LEO
Last TLE update
15 hours ago
Origin
Flag of CNDKJ (CN / PRC)
Manufacturer
DKJ?
Mission
Commercial Technology
Bus & Motor
TIANDI, Unknown motor
Mass
65 kg wet, 65 kg dry
Launch date (UTC)
2019-06-05 (6 years ago)
Launch vehicle
CHANG ZHENG 11
Launch site
Yellow Sea Launch Area, China (YSLA)
Object type
Unknown
Shape & HBR
Box, 1 m
Radar Cross Section
1.500 m², Medium (>0.1 m² and < 1m²)

Expand to show TLE details & history

TLE from 15 hours ago
0 OBJECT G
1 44316U 19032G   25186.32914705  .00006180  00000-0  31174-3 0  9990
2 44316  44.9752 140.9213 0014468  72.9773 287.2690 15.17902886334213
Epoch: 2025-07-05T07:53Z
TLE epoch observation values (Epoch: 2025-07-05T07:53:58.305Z)
Latitude
-0.00001°
Longitude
98.8596°
Altitude
509.23 km
Speed
7.613 km/s
True Right ascension
09h 23m 41s
True Declination
0° 00' 00"
Sunlit
Object was in daylight at epoch
Visualization orbit readout
Latitude
27.74172°
Longitude
-116.0326°
Altitude
507.99 km
Speed
7.617 km/s
Apparent Right ascension
20h 39m 10s
Apparent Declination
-5° 08' 22"
Sunlit
Object is in full shadow
Visualization observer readout
Local Sidereal Time
10:39:36
Azimuth
45.902° ENE
Elevation
-45.915°
Doppler factor
1
Orbital elements
Apogee altitude
523.758 km
Perigee altitude
503.815 km
Semi-major axis
6,891.923 km
Eccentricity
0.00145
Inclination
44.9752°
RAAN
140.9213°
Arg. of periapsis
72.9773°
True anomaly
Unknown
Mean anomaly
287.269°
Eccentric anomaly
Unknown
Mean motion
3.79343 °/min
Orbital period
94.9 mins
BSTAR
0.00031174
Loading maneuver chart data...
Loading SW <> Apogee altitude chart data...
Loading historical data...
Loading historical data...
Loading historical data...
Loading historical data...
Loading historical data...
Loading historical data...
Loading historical data...

OBJECT G Visibility forecast

Observer location: undefined°, undefined°

Span
Click to sort rows by Start time (UTC) header in descending order
Start Az.
Max El. time (UTC)
Max El. Az.
Max El.
End time (UTC)
End Az.
6 mins2025-07-05 23:53:22.085Z204.54° SW2025-07-05 23:56:22.085Z130.482° SE28.819°2025-07-05 23:59:22.085Z80.375° E
5 mins2025-07-06 01:33:22.085Z271.553° WNW2025-07-06 01:35:22.085Z351.213° N40.617°2025-07-06 01:38:22.085Z60.891° ENE
5 mins2025-07-06 03:13:22.085Z309.798° NW2025-07-06 03:15:22.085Z11.762° NNE31.128°2025-07-06 03:18:22.085Z68.577° E
6 mins2025-07-06 04:52:22.085Z299.951° NW2025-07-06 04:55:22.085Z63.013° ENE40.743°2025-07-06 04:58:22.085Z102.256° ESE
5 mins2025-07-06 06:32:22.085Z259.279° W2025-07-06 06:34:22.085Z209.466° SW25.629°2025-07-06 06:37:22.085Z156.352° SSE
|